Dewpoint
55 55 55 54 55 55 55 55 55 56 56 57 57 57 58 57 58 58 58 58 59 58 58 58 58 58 58 58 58 59 59 56 50 43 42 39 47 63 69 70 65 73 72 64 63 59 56 57 59 60 59 59 56 52 56 59 53 51 47 45 42 38 37 40 42 47 48 48 53 56 55 56 57 58 60 60 59 57 58 60 61 62 61 60 63 66 67 68
54 54 54 54 54 55 55 55 55 55 56 56 56 57 57 57 58 58 58 58 58 58 58 58 58 58 58 58 59 59 58 54 46 44 43 46 64 67 71 70 71 72 64 59 56 51 53 53 57 58 57 54 52 46 56 54 51 47 45 44 40 40 38 41 42 47 46 48 54 55 56 56 56 58 60 56 57 57 58 60 61 62 62 64 65 66 67 67
54 54 54 54 54 54 55 55 55 55 56 56 57 57 57 57 57 57 57 58 57 58 58 57 58 57 58 58 59 59 56 47 42 24 19 63 69 71 69 72 72 68 47 48 49 38 42 44 54 56 54 43 45 44 52 46 51 46 45 43 42 41 40 41 43 45 46 52 54 55 56 55 57 58 60 56 56 56 56 58 59 60 61 63 65 66 66 66
54 54 54 54 54 54 54 55 55 55 56 56 56 57 57 57 57 57 57 57 57 57 57 57 57 57 57 58 59 59 54 44 20 21 22 69 71 72 69 71 73 66 43 42 41 32 31 35 53 48 46 38 36 41 46 45 48 45 44 43 42 42 39 40 42 44 47 53 54 55 56 55 57 58 57 56 55 55 55 58 57 60 62 63 65 65 65 66
54 54 53 54 54 54 54 54 55 55 55 56 56 56 57 57 57 57 57 57 56 57 57 57 57 58 58 58 58 57 47 23 17 12 20 71 71 73 69 71 71 59 41 44 39 33 31 37 46 37 35 30 33 39 37 41 46 42 43 44 43 41 40 41 41 43 48 53 54 55 54 53 58 57 56 56 53 50 53 58 59 61 63 63 64 65 65 65
53 54 53 53 53 54 54 54 54 55 55 56 56 56 56 56 57 57 57 56 57 56 57 57 57 57 58 59 58 55 30 17 19 28 72 70 72 71 71 70 72 52 42 41 38 34 31 36 36 31 28 28 30 32 33 36 42 39 40 39 42 42 41 41 40 44 51 53 54 54 54 56 56 55 56 55 55 52 57 58 60 63 63 64 65 65 65 65
53 53 53 53 53 53 53 54 54 55 55 55 56 55 56 56 56 56 56 56 56 56 57 57 57 57 58 58 54 49 34 28 30 31 61 72 72 75 74 72 72 46 41 39 36 33 30 31 30 24 22 24 31 31 33 34 38 39 37 32 32 40 41 41 40 46 51 53 53 54 55 54 55 53 56 54 54 57 58 59 61 64 64 64 64 65 65 65
53 52 53 53 53 53 53 53 54 54 55 55 55 55 56 56 56 56 56 56 56 57 57 57 57 57 58 55 37 26 32 29 32 32 62 71 65 71 73 67 59 44 40 37 34 31 30 26 22 28 18 14 27 32 31 29 35 35 34 34 32 32 35 41 41 47 51 52 54 54 53 54 54 53 56 54 54 59 59 61 63 64 64 64 64 64 65 66
53 52 52 53 53 53 53 53 54 54 54 55 55 55 55 55 55 56 56 56 56 56 57 57 57 57 59 56 31 26 25 30 31 45 60 61 59 60 64 60 51 43 38 36 33 31 27 24 19 24 12 22 32 31 29 27 26 29 29 28 29 33 37 40 43 47 51 53 54 53 52 54 54 56 54 54 57 60 62 62 63 64 64 64 64 65 66 67
52 52 52 53 53 53 53 53 53 53 54 55 55 55 55 55 55 55 56 56 56 57 57 57 57 58 57 36 29 25 26 33 41 62 60 59 53 48 51 54 49 42 37 35 32 29 23 23 16 28 28 28 31 29 27 26 27 29 28 36 35 39 39 42 44 48 51 52 53 52 53 54 55 53 50 56 58 61 62 62 63 64 63 64 64 65 67 66
52 53 52 52 52 52 53 53 53 53 54 55 54 55 55 55 55 55 55 56 57 57 57 57 57 57 47 47 26 24 31 39 53 54 55 53 48 44 49 51 47 40 37 33 31 28 23 24 31 32 29 25 29 28 26 25 27 24 42 42 42 41 41 43 46 49 50 52 53 53 53 54 54 53 50 55 59 61 61 62 63 63 64 64 65 66 68 68
52 52 52 52 52 52 52 53 52 53 54 54 54 54 54 55 55 55 56 56 57 57 57 58 58 56 53 39 30 28 31 33 45 32 37 37 34 44 48 48 42 39 36 32 29 29 25 28 32 28 13 29 27 27 26 27 29 34 43 40 42 42 42 44 45 48 49 51 53 54 53 52 54 51 53 57 60 61 61 62 62 63 64 64 65 65 67 67
52 52 52 52 52 52 52 52 52 53 53 53 54 54 54 54 54 55 56 57 57 58 58 58 58 55 46 34 33 33 33 33 35 37 38 36 41 45 47 46 39 36 35 33 30 30 31 28 24 22 28 26 25 25 25 30 42 44 44 42 41 41 42 45 47 48 49 51 53 50 42 47 52 53 56 59 59 60 61 62 62 63 63 64 65 65 66 67
52 52 52 52 52 52 52 52 52 52 53 53 53 53 53 54 54 55 57 58 59 58 58 59 56 56 43 35 36 38 38 37 38 43 44 40 38 42 40 46 40 35 34 32 31 31 32 28 19 22 26 22 23 23 24 38 41 40 43 42 40 38 40 46 46 48 48 53 52 48 41 41 49 53 57 59 59 60 60 61 61 62 63 63 64 64 65 66
51 51 51 52 52 52 52 52 52 52 53 53 53 53 53 53 55 56 59 59 58 59 60 60 58 50 40 38 42 43 58 49 52 51 44 38 35 35 38 39 41 36 33 27 25 31 30 27 22 18 14 24 20 18 29 35 42 43 38 38 41 36 42 46 49 47 47 52 52 47 43 40 47 53 57 59 59 59 59 60 60 61 62 62 64 64 64 65
51 51 51 52 52 51 52 52 52 52 52 52 52 52 53 54 56 58 58 59 59 60 59 55 53 50 42 35 37 48 47 39 35 39 46 36 31 29 35 37 35 34 32 32 28 27 26 25 16 18 18 21 18 18 25 39 41 42 38 40 39 39 41 45 48 49 49 51 52 47 42 45 45 52 57 59 59 59 59 59 60 60 61 62 63 63 64 64
52 51 51 52 52 51 52 51 52 52 52 52 52 53 54 54 57 60 60 60 60 59 58 53 51 55 30 36 39 34 36 39 41 41 41 36 32 31 33 33 32 30 26 28 28 26 24 20 23 18 19 17 17 20 23 32 39 40 37 40 41 38 43 42 47 48 49 50 49 49 46 45 51 56 57 58 58 58 58 59 60 60 61 62 62 63 63 64
51 51 51 51 51 52 51 52 52 52 52 51 52 52 50 54 56 57 59 58 58 58 58 57 54 46 37 36 34 33 36 34 34 35 36 37 32 31 29 24 27 28 23 23 24 23 23 19 17 9 16 18 19 20 24 21 30 39 38 40 40 39 42 42 43 46 49 50 48 48 47 46 49 56 57 58 58 58 58 59 59 60 60 62 62 63 63 64
50 51 51 51 51 51 51 51 51 51 51 52 52 52 54 56 56 55 54 55 42 39 29 47 40 27 14 24 33 33 32 33 35 36 33 35 31 26 23 28 28 27 23 21 19 23 20 18 19 19 12 16 15 18 23 20 30 35 38 37 39 37 41 42 44 47 48 49 47 47 47 46 49 56 57 58 58 58 58 59 59 60 60 62 62 62 62 63
50 51 51 51 51 51 51 51 51 51 51 50 48 46 41 31 30 33 43 47 31 28 26 26 42 38 35 32 28 29 31 37 30 34 36 40 31 26 24 20 19 20 23 19 18 18 18 14 14 13 12 12 15 17 22 19 29 36 38 38 39 37 40 43 43 46 48 49 47 47 47 47 48 55 57 58 58 59 58 59 59 60 60 61 61 61 62 63
50 51 50 51 51 52 51 51 51 51 51 50 47 34 26 28 21 18 24 22 22 24 25 26 25 26 25 26 31 31 29 29 34 33 36 45 32 28 23 18 22 22 22 18 15 19 16 15 13 12 13 13 15 18 22 25 28 35 37 37 38 39 37 42 42 44 48 47 47 49 48 48 50 55 57 58 58 58 58 59 59 60 60 61 62 62 62 63
51 51 51 51 51 51 51 51 51 51 51 51 40 26 28 29 30 28 27 14 17 23 25 26 27 26 27 28 27 30 31 28 28 32 35 35 32 31 30 19 23 25 16 14 17 17 16 10 11 14 14 17 21 19 20 22 28 32 32 35 36 37 33 36 42 42 46 46 46 47 47 47 49 53 57 58 58 59 58 59 59 60 61 61 61 62 63 63
50 50 50 51 51 51 50 51 50 50 47 40 37 34 30 32 31 34 29 22 21 21 19 21 22 24 26 28 29 31 28 27 23 25 30 34 31 30 26 23 24 23 12 13 12 16 14 12 11 14 15 17 21 22 22 23 25 28 31 34 34 33 36 34 35 40 44 44 44 47 45 46 49 53 55 58 58 59 60 59 59 60 61 61 61 62 62 63
49 50 50 51 51 51 51 50 50 47 43 41 40 35 38 35 32 32 27 16 15 18 25 25 24 25 26 26 30 31 29 29 27 24 35 32 29 32 27 24 22 20 17 12 11 10 10 13 14 14 15 14 18 22 22 20 20 24 25 28 30 29 33 34 33 40 44 46 45 45 44 44 49 49 52 56 58 58 59 59 60 60 60 61 62 62 62 62
49 50 50 51 50 50 49 50 44 43 44 38 38 38 39 35 37 34 27 27 29 28 31 30 28 29 28 38 34 31 31 32 31 29 34 32 25 27 27 24 23 22 19 11 13 12 10 13 16 14 15 14 17 21 20 19 20 22 24 24 24 27 28 34 40 40 39 41 44 41 40 40 47 47 48 53 56 57 58 59 59 60 60 60 60 61 62 62
49 50 50 50 51 50 50 39 42 45 41 30 31 38 37 36 35 38 33 29 20 24 30 27 31 27 33 33 33 34 32 28 31 32 33 32 32 29 23 22 25 25 16 12 10 14 10 15 15 13 14 15 14 16 20 18 18 19 20 24 23 26 29 36 38 35 38 37 41 42 37 34 47 48 50 53 55 56 58 58 57 59 60 59 60 60 60 60
50 50 50 50 50 50 43 35 46 44 23 20 38 40 38 36 43 35 30 25 21 27 25 31 30 29 32 33 32 34 17 15 33 35 34 40 28 27 27 23 24 17 14 16 22 14 16 16 16 16 14 13 13 12 20 18 16 17 24 24 25 28 32 36 37 33 38 44 44 42 38 36 37 41 50 53 53 55 56 57 57 57 59 58 59 58 60 60
50 50 50 50 50 50 47 45 46 42 34 27 41 40 39 42 42 37 33 19 15 26 30 32 31 31 32 35 34 25 22 24 22 34 33 34 30 26 26 22 26 22 16 21 19 20 13 14 15 15 15 12 10 12 22 20 15 18 26 25 25 27 30 35 35 32 39 36 41 42 42 39 39 44 51 52 52 54 54 55 56 57 57 58 58 58 59 60
50 50 49 50 50 50 49 48 46 42 40 42 42 40 40 43 36 27 23 12 25 25 25 23 25 29 31 35 33 30 29 28 19 26 34 33 31 28 25 24 24 21 16 22 21 15 15 13 13 15 15 12 17 16 21 21 15 20 25 25 26 28 34 35 33 34 39 37 37 43 40 38 37 45 46 52 51 51 53 54 55 57 57 57 57 58 58 59
50 49 50 49 48 47 47 48 46 45 44 44 43 43 41 39 35 26 18 16 29 18 24 25 23 22 30 31 32 32 30 29 27 30 34 31 30 25 20 23 21 20 16 16 22 21 16 31 21 14 14 15 18 22 23 20 19 23 22 23 26 31 37 39 41 41 40 35 35 41 41 37 30 39 43 47 48 50 50 54 55 56 57 57 58 58 58 59
50 49 49 49 47 46 47 43 43 44 45 46 44 42 38 34 27 21 23 18 19 20 25 23 22 24 21 19 14 26 30 30 28 27 31 29 27 23 21 21 20 22 20 16 17 19 18 19 20 15 21 15 18 18 23 24 22 21 20 23 25 31 35 37 37 40 33 32 38 35 40 38 31 31 45 48 50 50 50 50 53 53 55 56 58 57 57 59
48 48 49 48 47 48 44 32 39 44 45 43 36 28 28 19 22 19 17 27 11 18 20 20 23 22 21 23 18 23 24 27 27 24 26 28 27 23 24 25 25 22 23 19 20 16 16 19 17 14 36 13 15 13 19 23 22 21 22 24 21 28 27 26 31 30 32 28 31 33 39 40 39 37 44 45 47 48 50 49 49 51 53 56 56 57 58 58
48 47 48 48 49 48 48 43 42 45 46 42 35 29 21 18 18 19 15 22 14 27 22 23 22 22 20 18 15 17 25 18 25 23 25 25 27 26 23 23 23 23 22 20 19 15 18 16 14 15 13 21 13 8 18 19 22 20 21 28 26 24 22 23 27 32 30 30 30 30 40 34 40 42 44 42 42 44 47 50 50 51 54 56 57 58 57 58
47 48 47 47 47 47 47 50 49 48 44 43 31 22 23 18 17 31 12 19 17 23 22 22 22 21 19 14 14 17 17 23 23 22 23 24 24 26 23 20 21 21 21 21 18 16 16 15 15 14 14 22 15 8 13 17 21 21 20 20 24 26 21 23 26 23 23 24 34 35 34 36 31 33 41 41 43 45 45 46 50 53 52 55 54 56 56 57
47 47 46 46 46 47 48 48 49 48 44 39 12 14 13 15 23 23 21 17 18 19 17 23 18 18 13 19 19 22 19 20 23 21 21 22 22 24 23 21 19 20 18 17 20 19 15 15 17 15 16 18 15 16 17 18 19 20 21 20 25 22 28 19 28 22 25 26 29 38 34 38 33 46 44 45 40 42 40 44 47 50 51 53 53 54 55 56
46 45 46 45 45 46 47 48 48 47 41 20 0 14 9 11 7 21 13 25 23 17 20 19 20 16 16 17 24 20 22 20 19 21 20 20 22 23 23 22 18 19 18 18 20 15 18 16 15 15 15 14 14 19 19 17 14 20 20 19 18 25 18 34 33 29 28 26 25 40 36 35 38 36 36 39 42 42 45 43 43 47 49 54 53 54 54 55
44 45 41 42 44 46 47 47 47 45 39 11 2 2 6 7 11 20 28 24 20 21 20 13 16 15 17 16 19 20 18 18 18 20 21 21 19 20 21 21 19 18 19 20 22 19 15 17 15 14 12 12 13 17 15 18 17 18 17 19 26 27 28 30 19 35 25 19 29 32 28 29 31 25 48 41 39 37 41 45 41 48 52 52 52 55 56 56
43 43 45 46 47 48 48 48 46 44 27 6 2 18 16 -0 11 18 24 16 19 15 15 18 18 20 18 18 17 16 17 11 14 17 14 18 19 21 20 20 19 18 18 19 20 22 17 14 15 14 14 13 14 16 14 16 20 16 17 23 16 24 23 44 33 24 23 23 23 31 32 29 32 29 32 31 37 38 44 47 45 47 48 50 51 54 57 57
43 44 33 44 47 47 47 47 44 37 17 7 5 12 21 8 9 15 15 17 16 14 14 16 16 19 19 18 19 17 14 10 18 13 16 20 17 24 19 20 19 18 18 18 18 22 17 13 18 20 14 15 13 12 11 10 15 17 21 19 20 23 31 30 26 36 26 21 24 23 29 25 36 33 32 30 38 47 42 44 45 43 47 50 52 52 56 57
42 29 17 46 46 47 47 44 36 31 13 13 11 6 18 13 10 15 20 16 11 11 11 11 18 16 17 17 14 11 20 14 11 13 17 19 18 22 19 19 19 18 17 18 18 19 19 27 17 15 17 13 13 13 8 8 12 14 15 18 20 22 23 25 28 25 22 26 25 22 24 30 36 39 35 39 42 45 45 46 50 49 46 48 51 53 56 58
43 32 26 46 46 47 45 44 28 22 17 15 13 4 8 7 13 17 16 18 14 16 11 14 16 13 14 14 12 18 15 17 18 14 17 16 17 18 20 19 19 17 17 17 17 20 24 21 19 19 15 14 12 14 10 7 8 12 12 17 17 20 23 20 22 23 26 22 29 24 21 32 32 37 43 41 41 41 46 47 48 47 47 50 51 53 57 58
38 15 19 46 46 46 41 29 31 26 19 20 11 6 3 18 8 6 5 14 17 12 16 13 17 14 17 14 12 16 16 12 13 13 15 13 17 18 17 20 19 17 16 19 17 18 25 34 20 19 16 14 13 14 16 11 8 10 12 13 16 16 21 21 20 27 25 26 29 32 25 28 43 44 42 43 41 37 42 45 46 46 49 49 51 49 56 60
36 26 28 40 45 43 38 33 36 35 22 20 30 24 30 26 25 23 11 16 11 13 11 10 11 9 9 7 10 8 10 9 11 10 14 15 16 18 19 19 19 17 17 19 17 19 37 23 25 20 23 22 20 18 20 17 12 9 10 11 15 15 15 17 20 36 23 31 26 25 26 26 39 54 50 41 52 50 51 46 49 46 47 51 51 51 58 60
38 38 38 43 45 43 37 29 30 31 31 29 28 24 29 28 29 29 22 19 15 15 13 14 14 11 11 12 9 10 14 12 15 11 13 20 18 22 19 18 19 17 21 22 25 32 21 41 27 22 22 21 18 20 17 19 15 12 11 13 14 13 17 20 33 43 26 30 21 23 19 23 37 56 53 51 45 42 42 43 50 51 53 51 52 55 58 61
40 41 41 42 47 43 35 33 32 31 31 32 34 32 30 31 31 23 21 24 28 25 23 22 18 15 14 15 15 14 17 9 12 18 15 22 18 25 23 19 19 20 22 24 48 26 24 32 28 19 19 18 19 17 17 20 17 16 20 16 18 13 15 26 22 35 22 40 36 23 21 36 44 51 46 47 47 48 46 45 45 49 55 52 53 55 60 61
37 31 27 39 40 39 40 37 33 31 31 34 33 33 33 29 29 31 31 27 26 26 24 24 27 24 23 19 16 14 14 16 13 20 29 21 22 28 34 35 31 32 42 46 44 29 36 41 31 32 24 20 24 29 34 26 22 16 16 16 15 14 17 21 35 28 20 38 32 34 34 31 37 35 44 42 48 45 42 48 51 52 52 55 58 59 59 61
39 35 40 37 37 35 34 34 35 34 30 33 33 34 33 32 32 31 33 27 32 31 31 30 30 29 29 27 26 24 21 18 19 19 18 19 22 24 36 37 36 41 54 54 55 35 45 32 31 36 36 31 23 28 27 22 17 16 15 14 15 15 19 20 25 23 48 32 24 39 49 33 34 38 43 46 46 50 51 52 51 54 55 54 55 60 59 59
37 37 40 41 35 31 32 31 36 33 34 36 33 34 31 31 32 31 33 32 30 30 31 31 29 30 31 30 31 28 28 28 28 23 23 23 24 21 21 28 32 45 45 35 45 32 30 24 24 26 27 25 21 20 23 22 16 16 14 14 15 16 21 20 31 29 42 25 21 40 50 44 38 33 38 43 48 49 46 50 50 53 53 56 57 55 55 56
40 39 38 40 34 36 37 37 37 37 37 35 33 32 30 29 30 33 32 32 31 30 29 31 30 28 29 31 30 30 35 28 28 31 30 26 28 27 26 29 35 35 35 37 36 45 35 24 29 23 22 21 21 19 20 21 19 15 14 14 15 15 18 19 22 26 32 39 33 40 50 42 33 32 35 40 48 45 49 51 51 50 48 55 55 57 55 56
34 36 31 38 38 36 36 36 38 37 33 35 32 31 37 36 35 33 33 31 31 31 32 31 33 37 36 38 43 39 36 30 30 30 38 31 32 40 30 32 32 37 36 37 36 40 34 33 41 25 26 20 18 19 19 19 19 18 16 15 14 14 16 18 17 22 32 31 33 34 47 46 41 45 42 49 56 48 47 43 43 51 53 53 54 54 55 55
37 38 39 38 34 33 37 38 35 33 32 31 29 29 32 32 32 31 32 33 32 32 36 36 32 32 35 37 40 40 40 40 40 39 39 39 35 40 35 38 36 38 41 39 38 40 37 38 32 34 26 24 21 19 18 18 18 18 18 17 17 15 18 18 23 31 31 36 37 35 38 36 39 43 42 46 48 50 47 51 52 53 51 55 55 55 56 58
38 39 41 41 35 35 33 33 34 33 29 31 35 35 32 30 31 32 33 34 34 33 33 32 31 30 31 37 39 40 36 34 34 36 39 39 38 37 38 38 38 39 45 42 44 39 41 36 34 29 26 27 26 21 19 18 20 20 20 18 19 20 21 20 21 32 27 29 33 33 30 36 40 46 43 45 41 46 49 49 52 54 57 54 56 57 56 57